Time,TemperatureF,DewpointF,PressureIn,WindDirection,WindDirectionDegrees,WindSpeedMPH,WindSpeedGustMPH,Humidity,HourlyPrecipIn,Conditions,Clouds,dailyrainin,SoftwareType,DateUTC
2013-07-13 00:06:00,67.1,61.0,30.14,NNW,328,0.0,0.0,82,0.00,,,0.00,weatherlink.com 1.10,2013-07-13 04:06:00,
2013-07-13 00:21:00,66.5,61.0,30.15,NNW,328,0.0,0.0,83,0.00,,,0.00,weatherlink.com 1.10,2013-07-13 04:21:00,
2013-07-13 00:37:00,65.9,61.0,30.15,NNW,328,0.0,0.0,84,0.00,,,0.00,weatherlink.com 1.10,2013-07-13 04:37:00,
2013-07-13 00:52:00,65.4,61.0,30.14,NNW,328,0.0,1.0,86,0.00,,,0.00,weatherlink.com 1.10,2013-07-13 04:52:00,
2013-07-13 01:07:00,64.9,60.0,30.15,NNW,328,0.0,0.0,85,0.00,,,0.00,weatherlink.com 1.10,2013-07-13 05:07:00,
2013-07-13 01:22:00,64.5,60.0,30.14,NNW,328,0.0,0.0,86,0.00,,,0.00,weatherlink.com 1.10,2013-07-13 05:22:00,
2013-07-13 01:37:00,64.1,61.0,30.14,NNW,328,0.0,0.0,88,0.00,,,0.00,weatherlink.com 1.10,2013-07-13 05:37:00,
2013-07-13 01:52:00,63.8,60.0,30.14,NNW,328,0.0,0.0,88,0.00,,,0.00,weatherlink.com 1.10,2013-07-13 05:52:00,
2013-07-13 02:07:00,63.4,60.0,30.15,NNW,328,0.0,0.0,88,0.00,,,0.00,weatherlink.com 1.10,2013-07-13 06:07:00,
2013-07-13 02:22:00,63.0,60.0,30.15,NNW,328,0.0,1.0,89,0.00,,,0.00,weatherlink.com 1.10,2013-07-13 06:22:00,
2013-07-13 02:37:00,62.5,60.0,30.15,NNW,328,0.0,0.0,90,0.00,,,0.00,weatherlink.com 1.10,2013-07-13 06:37:00,
2013-07-13 02:52:00,62.2,59.0,30.15,NNW,328,0.0,0.0,90,0.00,,,0.00,weatherlink.com 1.10,2013-07-13 06:52:00,
2013-07-13 03:07:00,61.9,59.0,30.14,NNW,328,0.0,0.0,90,0.00,,,0.00,weatherlink.com 1.10,2013-07-13 07:07:00,
2013-07-13 03:22:00,61.6,59.0,30.15,NNW,328,0.0,0.0,91,0.00,,,0.00,weatherlink.com 1.10,2013-07-13 07:22:00,
2013-07-13 03:37:00,61.3,59.0,30.15,NNW,328,0.0,0.0,91,0.00,,,0.00,weatherlink.com 1.10,2013-07-13 07:37:00,
2013-07-13 03:52:00,61.1,59.0,30.15,NNW,328,0.0,0.0,92,0.00,,,0.00,weatherlink.com 1.10,2013-07-13 07:52:00,
2013-07-13 04:07:00,60.8,59.0,30.15,NNW,328,0.0,0.0,92,0.00,,,0.00,weatherlink.com 1.10,2013-07-13 08:07:00,
2013-07-13 04:22:00,60.6,58.0,30.15,NNW,328,0.0,0.0,92,0.00,,,0.00,weatherlink.com 1.10,2013-07-13 08:22:00,
2013-07-13 04:37:00,60.4,58.0,30.16,NNW,328,0.0,0.0,92,0.00,,,0.00,weatherlink.com 1.10,2013-07-13 08:37:00,
2013-07-13 04:52:00,60.1,58.0,30.16,NNW,328,0.0,0.0,92,0.00,,,0.00,weatherlink.com 1.10,2013-07-13 08:52:00,
2013-07-13 05:07:00,59.9,58.0,30.16,NNW,328,0.0,0.0,93,0.00,,,0.00,weatherlink.com 1.10,2013-07-13 09:07:00,
2013-07-13 05:22:00,59.6,58.0,30.16,NNW,328,0.0,0.0,93,0.00,,,0.00,weatherlink.com 1.10,2013-07-13 09:22:00,
2013-07-13 05:37:00,59.3,57.0,30.17,NNW,328,0.0,0.0,93,0.00,,,0.00,weatherlink.com 1.10,2013-07-13 09:37:00,
2013-07-13 05:52:00,59.0,57.0,30.17,NNW,328,0.0,0.0,93,0.00,,,0.00,weatherlink.com 1.10,2013-07-13 09:52:00,
2013-07-13 06:07:00,58.8,57.0,30.18,NNW,328,0.0,0.0,93,0.00,,,0.00,weatherlink.com 1.10,2013-07-13 10:07:00,
2013-07-13 06:22:00,58.5,57.0,30.18,NNW,328,0.0,0.0,93,0.00,,,0.00,weatherlink.com 1.10,2013-07-13 10:22:00,
2013-07-13 06:37:00,58.4,57.0,30.19,NNW,328,0.0,0.0,94,0.00,,,0.00,weatherlink.com 1.10,2013-07-13 10:37:00,
2013-07-13 06:52:00,58.4,57.0,30.19,NNW,328,0.0,0.0,94,0.00,,,0.00,weatherlink.com 1.10,2013-07-13 10:52:00,
2013-07-13 07:07:00,58.6,57.0,30.18,SSE,168,0.0,2.0,95,0.00,,,0.00,weatherlink.com 1.10,2013-07-13 11:07:00,
2013-07-13 07:22:00,59.1,58.0,30.18,SSE,168,0.0,0.0,96,0.00,,,0.00,weatherlink.com 1.10,2013-07-13 11:22:00,
2013-07-13 07:37:00,59.6,59.0,30.18,SSE,168,0.0,0.0,96,0.00,,,0.00,weatherlink.com 1.10,2013-07-13 11:37:00,
2013-07-13 07:52:00,60.5,60.0,30.18,SSW,194,0.0,2.0,97,0.00,,,0.00,weatherlink.com 1.10,2013-07-13 11:52:00,
2013-07-13 08:07:00,61.8,61.0,30.18,SSW,194,0.0,1.0,98,0.00,,,0.00,weatherlink.com 1.10,2013-07-13 12:07:00,
2013-07-13 08:22:00,64.2,64.0,30.18,WNW,286,1.0,3.0,98,0.00,,,0.00,weatherlink.com 1.10,2013-07-13 12:22:00,
2013-07-13 08:37:00,68.9,66.0,30.18,SSE,157,2.0,3.0,89,0.00,,,0.00,weatherlink.com 1.10,2013-07-13 12:37:00,
2013-07-13 08:52:00,70.5,66.0,30.18,South,180,1.0,4.0,84,0.00,,,0.00,weatherlink.com 1.10,2013-07-13 12:52:00,
2013-07-13 09:08:00,71.9,64.0,30.18,SE,138,0.0,4.0,76,0.00,,,0.00,weatherlink.com 1.10,2013-07-13 13:08:00,
2013-07-13 09:23:00,73.4,64.0,30.19,East,88,2.0,4.0,73,0.00,,,0.00,weatherlink.com 1.10,2013-07-13 13:23:00,
2013-07-13 09:38:00,74.2,62.0,30.19,SE,142,1.0,4.0,66,0.00,,,0.00,weatherlink.com 1.10,2013-07-13 13:38:00,
2013-07-13 09:53:00,75.6,63.0,30.19,SSE,155,2.0,4.0,65,0.00,,,0.00,weatherlink.com 1.10,2013-07-13 13:53:00,
2013-07-13 10:08:00,76.4,61.0,30.19,South,187,3.0,5.0,60,0.00,,,0.00,weatherlink.com 1.10,2013-07-13 14:08:00,
2013-07-13 10:23:00,76.8,59.0,30.19,ESE,109,2.0,4.0,54,0.00,,,0.00,weatherlink.com 1.10,2013-07-13 14:23:00,
2013-07-13 10:38:00,77.2,60.0,30.19,ESE,105,2.0,5.0,55,0.00,,,0.00,weatherlink.com 1.10,2013-07-13 14:38:00,
2013-07-13 10:53:00,77.9,61.0,30.19,SE,132,1.0,5.0,56,0.00,,,0.00,weatherlink.com 1.10,2013-07-13 14:53:00,
2013-07-13 11:08:00,77.6,60.0,30.19,South,182,2.0,8.0,54,0.00,,,0.00,weatherlink.com 1.10,2013-07-13 15:08:00,
2013-07-13 11:23:00,78.9,61.0,30.18,SW,226,1.0,4.0,54,0.00,,,0.00,weatherlink.com 1.10,2013-07-13 15:23:00,
2013-07-13 11:38:00,78.7,60.0,30.18,SE,130,1.0,6.0,52,0.00,,,0.00,weatherlink.com 1.10,2013-07-13 15:38:00,
2013-07-13 11:53:00,79.5,59.0,30.19,SSW,204,1.0,5.0,50,0.00,,,0.00,weatherlink.com 1.10,2013-07-13 15:53:00,
2013-07-13 12:08:00,80.1,60.0,30.19,South,183,1.0,6.0,51,0.00,,,0.00,weatherlink.com 1.10,2013-07-13 16:08:00,
2013-07-13 12:23:00,80.0,59.0,30.19,SE,144,1.0,4.0,49,0.00,,,0.00,weatherlink.com 1.10,2013-07-13 16:23:00,
2013-07-13 12:38:00,80.7,61.0,30.19,South,176,1.0,5.0,52,0.00,,,0.00,weatherlink.com 1.10,2013-07-13 16:38:00,
2013-07-13 12:53:00,81.4,60.0,30.18,SE,134,0.0,4.0,48,0.00,,,0.00,weatherlink.com 1.10,2013-07-13 16:53:00,
2013-07-13 13:08:00,81.5,62.0,30.19,NNW,347,2.0,7.0,52,0.00,,,0.00,weatherlink.com 1.10,2013-07-13 17:08:00,
2013-07-13 13:23:00,82.1,64.0,30.18,WNW,287,1.0,4.0,54,0.00,,,0.00,weatherlink.com 1.10,2013-07-13 17:23:00,
2013-07-13 13:38:00,82.9,61.0,30.19,ESE,107,3.0,4.0,48,0.00,,,0.00,weatherlink.com 1.10,2013-07-13 17:38:00,
2013-07-13 13:53:00,82.7,59.0,30.18,East,90,3.0,6.0,45,0.00,,,0.00,weatherlink.com 1.10,2013-07-13 17:53:00,
2013-07-13 14:08:00,82.1,56.0,30.18,ENE,72,1.0,5.0,41,0.00,,,0.00,weatherlink.com 1.10,2013-07-13 18:08:00,
2013-07-13 14:23:00,83.2,58.0,30.19,WSW,248,2.0,4.0,42,0.00,,,0.00,weatherlink.com 1.10,2013-07-13 18:23:00,
2013-07-13 14:38:00,83.4,62.0,30.18,SW,229,2.0,4.0,48,0.00,,,0.00,weatherlink.com 1.10,2013-07-13 18:38:00,
2013-07-13 14:53:00,83.0,60.0,30.18,West,279,2.0,4.0,45,0.00,,,0.00,weatherlink.com 1.10,2013-07-13 18:53:00,
2013-07-13 15:08:00,83.2,61.0,30.18,SE,142,2.0,4.0,48,0.00,,,0.00,weatherlink.com 1.10,2013-07-13 19:08:00,
2013-07-13 15:23:00,83.8,60.0,30.18,SW,223,2.0,5.0,45,0.00,,,0.00,weatherlink.com 1.10,2013-07-13 19:23:00,
2013-07-13 15:38:00,83.0,60.0,30.17,SSE,159,1.0,5.0,46,0.00,,,0.00,weatherlink.com 1.10,2013-07-13 19:38:00,
2013-07-13 15:53:00,83.4,62.0,30.17,East,92,2.0,5.0,49,0.00,,,0.00,weatherlink.com 1.10,2013-07-13 19:53:00,
2013-07-13 16:08:00,83.5,61.0,30.17,SE,144,1.0,5.0,47,0.00,,,0.00,weatherlink.com 1.10,2013-07-13 20:08:00,
2013-07-13 16:23:00,83.6,62.0,30.17,SSW,197,2.0,4.0,49,0.00,,,0.00,weatherlink.com 1.10,2013-07-13 20:23:00,
2013-07-13 16:39:00,82.7,61.0,30.16,SW,220,0.0,4.0,48,0.00,,,0.00,weatherlink.com 1.10,2013-07-13 20:39:00,
2013-07-13 16:53:00,83.3,60.0,30.16,SSE,157,3.0,4.0,45,0.00,,,0.00,weatherlink.com 1.10,2013-07-13 20:53:00,
2013-07-13 17:08:00,83.7,63.0,30.16,West,265,2.0,3.0,49,0.00,,,0.00,weatherlink.com 1.10,2013-07-13 21:08:00,
2013-07-13 17:23:00,82.7,60.0,30.16,East,79,0.0,5.0,47,0.00,,,0.00,weatherlink.com 1.10,2013-07-13 21:23:00,
2013-07-13 17:39:00,83.0,61.0,30.17,South,174,1.0,6.0,48,0.00,,,0.00,weatherlink.com 1.10,2013-07-13 21:39:00,
2013-07-13 17:54:00,82.9,64.0,30.17,SW,218,1.0,5.0,53,0.00,,,0.00,weatherlink.com 1.10,2013-07-13 21:54:00,
2013-07-13 18:09:00,82.5,61.0,30.16,ENE,57,1.0,4.0,49,0.00,,,0.00,weatherlink.com 1.10,2013-07-13 22:09:00,
2013-07-13 18:24:00,82.0,63.0,30.16,ENE,71,4.0,6.0,53,0.00,,,0.00,weatherlink.com 1.10,2013-07-13 22:24:00,
2013-07-13 18:39:00,81.5,65.0,30.16,SSE,147,2.0,4.0,57,0.00,,,0.00,weatherlink.com 1.10,2013-07-13 22:39:00,
2013-07-13 18:54:00,80.9,65.0,30.16,SSE,167,2.0,7.0,58,0.00,,,0.00,weatherlink.com 1.10,2013-07-13 22:54:00,
2013-07-13 19:09:00,80.5,65.0,30.16,SE,140,2.0,4.0,59,0.00,,,0.00,weatherlink.com 1.10,2013-07-13 23:09:00,
2013-07-13 19:24:00,79.8,65.0,30.16,East,80,1.0,3.0,60,0.00,,,0.00,weatherlink.com 1.10,2013-07-13 23:24:00,
2013-07-13 19:39:00,79.5,65.0,30.16,East,88,0.0,2.0,61,0.00,,,0.00,weatherlink.com 1.10,2013-07-13 23:39:00,
2013-07-13 19:55:00,79.4,65.0,30.16,SE,132,1.0,3.0,61,0.00,,,0.00,weatherlink.com 1.10,2013-07-13 23:55:00,
2013-07-13 20:09:00,79.3,65.0,30.17,ESE,119,2.0,5.0,61,0.00,,,0.00,weatherlink.com 1.10,2013-07-14 00:09:00,
2013-07-13 20:24:00,78.9,65.0,30.17,SE,136,0.0,3.0,63,0.00,,,0.00,weatherlink.com 1.10,2013-07-14 00:24:00,
2013-07-13 20:39:00,78.5,65.0,30.17,South,172,0.0,2.0,64,0.00,,,0.00,weatherlink.com 1.10,2013-07-14 00:39:00,
2013-07-13 20:54:00,78.0,66.0,30.17,South,173,0.0,1.0,66,0.00,,,0.00,weatherlink.com 1.10,2013-07-14 00:54:00,
2013-07-13 21:09:00,77.4,66.0,30.17,South,173,0.0,1.0,67,0.00,,,0.00,weatherlink.com 1.10,2013-07-14 01:09:00,
2013-07-13 21:24:00,76.6,65.0,30.18,South,173,0.0,0.0,68,0.00,,,0.00,weatherlink.com 1.10,2013-07-14 01:24:00,
2013-07-13 21:39:00,75.5,66.0,30.18,South,173,0.0,0.0,72,0.00,,,0.00,weatherlink.com 1.10,2013-07-14 01:39:00,
2013-07-13 21:54:00,74.4,66.0,30.19,South,173,0.0,0.0,74,0.00,,,0.00,weatherlink.com 1.10,2013-07-14 01:54:00,
2013-07-13 22:09:00,73.5,66.0,30.19,South,173,0.0,0.0,77,0.00,,,0.00,weatherlink.com 1.10,2013-07-14 02:09:00,
2013-07-13 22:24:00,72.5,66.0,30.20,South,173,0.0,0.0,79,0.00,,,0.00,weatherlink.com 1.10,2013-07-14 02:24:00,
2013-07-13 22:39:00,71.8,66.0,30.20,South,173,0.0,0.0,81,0.00,,,0.00,weatherlink.com 1.10,2013-07-14 02:39:00,
2013-07-13 22:54:00,71.1,65.0,30.20,South,173,0.0,0.0,81,0.00,,,0.00,weatherlink.com 1.10,2013-07-14 02:54:00,
2013-07-13 23:09:00,70.5,65.0,30.21,South,173,0.0,0.0,82,0.00,,,0.00,weatherlink.com 1.10,2013-07-14 03:09:00,
2013-07-13 23:24:00,69.9,65.0,30.21,NW,316,0.0,2.0,84,0.00,,,0.00,weatherlink.com 1.10,2013-07-14 03:24:00,
2013-07-13 23:39:00,69.5,65.0,30.22,ENE,71,0.0,2.0,86,0.00,,,0.00,weatherlink.com 1.10,2013-07-14 03:39:00,
2013-07-13 23:54:00,69.2,65.0,30.22,ENE,70,0.0,0.0,86,0.00,,,0.00,weatherlink.com 1.10,2013-07-14 03:54:00,